Broken Bow, NE

1:44 PM CST on January 23, 2017 (GMT -0600)
Broken Bow Municipal

Weather History for KBBW - March, 2013

Change the Weather History Date:

Tuesday, March 12, 2013

  Actual Average Record
Temperature  
Mean Temperature 28 °F 36 °F  
Max Temperature 40 °F 50 °F 77 °F (2015)
Min Temperature 15 °F 23 °F -3 °F (1906)
Degree Days  
Heating Degree Days 37 29  
Month to date heating degree days 412 369  
Cooling Degree Days 0 0  
Month to date cooling degree days 0 0  
Year to date cooling degree days 0 0  
Moisture  
Dew Point 14 °F    
Average Humidity 54    
Maximum Humidity 80    
Minimum Humidity 27    
Precipitation  
Precipitation 0.00 in 0.03 in 1.23 in (1977)
Snow  
Snow 0.00 in - - ()
Snow Depth -    
Sea Level Pressure  
Sea Level Pressure 30.26 in    
Wind  
Wind Speed 18 mph (NW)    
Max Wind Speed 39 mph    
Max Gust Speed 49 mph    
Visibility 10 miles    
Events      
T = Trace of Precipitation, MM = Missing Value Source: NWS Daily Summary

Daily Weather History Graph

Daily Weather History Graph

Search for Another Location

Airport or City:

Trip Planner

Search our weather history database for the weather conditions in past years. The results will help you decide how hot, cold, wet, or windy it might be!

Date:

Astronomy

Mar. 12, 2013 Rise Set
Actual Time 7:54 AM CDT 7:42 PM CDT
Civil Twilight 7:27 AM CDT 8:09 PM CDT
Nautical Twilight 6:55 AM CDT 8:41 PM CDT
Astronomical Twilight 6:22 AM CDT 9:14 PM CDT
Moon 8:01 AM CDT (3/12) 9:00 PM CDT (3/12)
Length of Visible Light 12h 42m
Length of Day
11h 47m
New Moon, 1% of the Moon is Illuminated
Mar 12
New Moon
Mar 19
First Quarter
Mar 27
Full
Apr 2
Last Quarter
Apr 10
New

Hourly Weather History & Observations

Time (CDT) Temp. Windchill Dew Point Humidity Pressure Visibility Wind Dir Wind Speed Gust Speed Precip Events Conditions
12:53 AM 33.1 °F 24.9 °F 24.1 °F 70% 30.11 in 10.0 mi NNW 10.4 mph - N/A   Mostly Cloudy
1:53 AM 34.0 °F 25.0 °F 21.0 °F 59% 30.12 in 10.0 mi NNW 12.7 mph - N/A   Clear
2:53 AM 30.9 °F 22.2 °F 23.0 °F 72% 30.12 in 10.0 mi NW 10.4 mph - N/A   Scattered Clouds
3:53 AM 32.0 °F 21.6 °F 21.0 °F 64% 30.13 in 10.0 mi NW 15.0 mph - N/A   Clear
4:53 AM 32.0 °F 19.5 °F 19.0 °F 59% 30.14 in 10.0 mi NNW 21.9 mph 27.6 mph N/A   Clear
5:53 AM 30.0 °F 17.2 °F 17.1 °F 59% 30.17 in 10.0 mi NW 20.7 mph 26.5 mph N/A   Partly Cloudy
6:53 AM 28.0 °F 15.3 °F 16.0 °F 61% 30.20 in 10.0 mi NW 18.4 mph 26.5 mph N/A   Clear
7:53 AM 27.0 °F 13.9 °F 15.1 °F 61% 30.23 in 10.0 mi NW 18.4 mph 26.5 mph N/A   Clear
8:53 AM 28.0 °F 13.0 °F 14.0 °F 56% 30.25 in 10.0 mi NNW 26.5 mph 35.7 mph N/A   Clear
9:53 AM 30.0 °F 13.6 °F 12.9 °F 49% 30.27 in 10.0 mi NNW 36.8 mph 44.9 mph N/A   Clear
10:53 AM 32.0 °F 18.1 °F 14.0 °F 48% 30.29 in 10.0 mi NNW 27.6 mph 44.9 mph N/A   Clear
11:53 AM 34.0 °F 20.3 °F 15.1 °F 46% 30.30 in 10.0 mi NNW 29.9 mph 38.0 mph N/A   Partly Cloudy
12:53 PM 34.0 °F 20.3 °F 10.9 °F 38% 30.31 in 10.0 mi NW 29.9 mph 39.1 mph N/A   Clear
1:53 PM 36.0 °F 23.5 °F 8.1 °F 31% 30.31 in 10.0 mi NW 27.6 mph 39.1 mph N/A   Clear
2:53 PM 37.9 °F 26.3 °F 9.0 °F 30% 30.29 in 10.0 mi NNW 26.5 mph 36.8 mph N/A   Clear
3:53 PM 37.9 °F 26.3 °F 9.0 °F 30% 30.29 in 10.0 mi NW 26.5 mph 36.8 mph N/A   Clear
4:53 PM 39.0 °F 28.5 °F 9.0 °F 29% 30.29 in 10.0 mi NW 23.0 mph 36.8 mph N/A   Clear
5:53 PM 37.9 °F 27.1 °F 7.0 °F 28% 30.30 in 10.0 mi NNW 23.0 mph 32.2 mph N/A   Clear
6:53 PM 36.0 °F 26.0 °F 8.1 °F 31% 30.31 in 10.0 mi NW 17.3 mph 31.1 mph N/A   Clear
7:53 PM 32.0 °F 24.2 °F 9.0 °F 38% 30.32 in 10.0 mi NNW 9.2 mph - N/A   Clear
8:53 PM 25.0 °F - 10.0 °F 53% 30.35 in 10.0 mi Calm Calm - N/A   Clear
9:53 PM 24.1 °F 19.7 °F 12.9 °F 62% 30.36 in 10.0 mi West 3.5 mph - N/A   Clear
10:53 PM 18.0 °F - 10.9 °F 74% 30.39 in 10.0 mi Calm Calm - N/A   Clear
11:53 PM 17.1 °F - 12.0 °F 81% 30.40 in 10.0 mi Calm Calm - N/A   Clear